TimeCDT,TemperatureF,Dew PointF,Humidity,Sea Level PressureIn,VisibilityMPH,Wind Direction,Wind SpeedMPH,Gust SpeedMPH,PrecipitationIn,Events,Conditions,WindDirDegrees,DateUTC
12:52 AM,66.0,62.1,87,30.01,10.0,Calm,Calm,-,N/A,,Clear,0,2013-08-09 05:52:00
1:52 AM,66.0,62.1,87,30.01,10.0,Calm,Calm,-,N/A,,Clear,0,2013-08-09 06:52:00
2:52 AM,64.0,61.0,90,30.00,10.0,Calm,Calm,-,N/A,,Clear,0,2013-08-09 07:52:00
3:52 AM,63.0,61.0,93,29.99,10.0,Calm,Calm,-,N/A,,Clear,0,2013-08-09 08:52:00
4:52 AM,64.0,62.1,93,30.00,10.0,Calm,Calm,-,N/A,,Clear,0,2013-08-09 09:52:00
5:52 AM,63.0,61.0,93,30.01,10.0,Calm,Calm,-,N/A,,Partly Cloudy,0,2013-08-09 10:52:00
6:52 AM,64.9,63.0,93,30.03,10.0,Calm,Calm,-,N/A,,Overcast,0,2013-08-09 11:52:00
7:52 AM,66.9,63.0,87,30.03,10.0,Calm,Calm,-,N/A,,Overcast,0,2013-08-09 12:52:00
8:52 AM,71.1,64.0,78,30.03,10.0,West,5.8,-,N/A,,Overcast,270,2013-08-09 13:52:00
9:52 AM,73.9,64.0,71,30.03,10.0,West,5.8,-,N/A,,Overcast,260,2013-08-09 14:52:00
10:52 AM,79.0,64.0,60,30.03,10.0,NNW,6.9,-,N/A,,Clear,330,2013-08-09 15:52:00
11:52 AM,80.1,64.0,58,30.03,10.0,WNW,10.4,-,N/A,,Clear,300,2013-08-09 16:52:00
12:52 PM,80.1,64.0,58,30.02,10.0,NW,6.9,-,N/A,,Mostly Cloudy,320,2013-08-09 17:52:00
1:52 PM,82.9,64.9,54,30.02,10.0,West,6.9,-,N/A,,Scattered Clouds,280,2013-08-09 18:52:00
2:52 PM,80.1,66.0,62,30.03,10.0,WNW,5.8,-,N/A,,Mostly Cloudy,300,2013-08-09 19:52:00
3:52 PM,80.1,64.9,60,30.02,10.0,NNW,9.2,-,N/A,,Partly Cloudy,340,2013-08-09 20:52:00
4:52 PM,80.1,64.0,58,30.03,10.0,NW,9.2,-,N/A,,Clear,320,2013-08-09 21:52:00
5:52 PM,79.0,62.1,56,30.03,10.0,NNW,9.2,-,N/A,,Clear,330,2013-08-09 22:52:00
6:52 PM,77.0,60.1,56,30.04,10.0,NW,6.9,-,N/A,,Clear,310,2013-08-09 23:52:00
7:52 PM,73.9,60.1,62,30.05,10.0,NW,4.6,-,N/A,,Clear,320,2013-08-10 00:52:00
8:52 PM,72.0,59.0,64,30.06,10.0,NNW,4.6,-,N/A,,Clear,330,2013-08-10 01:52:00
9:52 PM,69.1,59.0,70,30.08,10.0,NW,4.6,-,N/A,,Clear,310,2013-08-10 02:52:00
10:52 PM,66.9,59.0,76,30.09,10.0,WNW,5.8,-,N/A,,Clear,300,2013-08-10 03:52:00
11:52 PM,66.0,60.1,81,30.11,10.0,NW,5.8,-,N/A,,Clear,310,2013-08-10 04:52:00